ATLAS 5 CENTAUR DEB, 55857

Orbit data source: Space-Track

ATLAS 5 CENTAUR DEB, 55857 is space debris in HEO originally from a launch on Wed, 17 Oct 2018 UTC launched from the Air Force Eastern Test Range (AFETR). Debris objects in space refer to the collection of defunct objects orbiting the Earth. Examples of debris include non-operational satellites, rocket bodies, and fragments generated from explosions, collisions, or faulty payload assembly.

Loading next visibility...
Identifier
55857, 2018-079HK
Orbit
HEO
Country
Flag of USUS
Related business
Flag of USUnited Launch Alliance/Lockheed Martin (US)
Manufacturer
ULA Decatur
Mission
Spacecraft
Bus & Motor
Unknown
Mass
Unknown
Launch date (UTC)
2018-10-17 (8 years ago)
Launch vehicle
Unknown
Launch site
Air Force Eastern Test Range (AFETR)
Object type
Payload
Rocket body
Debris
Shape & HBR
Unknown shape, 1.1 m
Radar Cross Section
RCS unknown

Expand to show TLE details & history
Last TLE update: 15 hours ago

TLE from 15 hours ago
0 ATLAS 5 CENTAUR DEB
1 55857U 18079HK  26150.97945198 -.00000127  00000-0  00000+0 0  9991
2 55857  13.7580 350.5653 4607301  44.5710 344.5594  2.00243198 26376
Epoch: 2026-05-30T23:30Z
TLE epoch observation values (Epoch: 2026-05-30T23:30:24.651Z)
Latitude
0.00003°
Longitude
109.45742°
Altitude
9,384.509 km
Speed
5.965 km/s
True Right ascension
23h 22m 11s
True Declination
0° 00' 00"
Sunlit
Object was in daylight at epoch
Visualization orbit readout
Latitude
Unknown
Longitude
Unknown
Altitude
Unknown
Speed
Unknown
Apparent Right ascension
Unknown
Apparent Declination
Unknown
Sunlit
N/A
Visualization observer readout
Local Sidereal Time
23:38:12
Azimuth
Unknown
Elevation
Unknown
Doppler factor
Unknown
Orbital elements
Apogee altitude
32,463.929 km
Perigee altitude
7,961.512 km
Semi-major axis
26,590.857 km
Eccentricity
0.46073
Inclination
13.758°
RAAN
350.5653°
Arg. of periapsis
44.571°
True anomaly
315.79885°
Mean anomaly
344.5594°
Eccentric anomaly
332.28066°
Mean motion
0.50055 °/min
Orbital period
719.21 mins
BSTAR
0
Loading maneuver chart data...
Computing Atmospheric mass density...

Documentation

Showing up to 5 results
|